Year,Month,Day,Hour,Minute,Value (Times are PST for temperature in C)
2006,09,28,00,00,14.60
2006,09,28,00,01,14.60
2006,09,28,00,02,14.60
2006,09,28,00,03,14.60
2006,09,28,00,04,14.60
2006,09,28,00,05,14.60
2006,09,28,00,06,14.60
2006,09,28,00,07,14.70
2006,09,28,00,08,14.70
2006,09,28,00,09,14.70
2006,09,28,00,10,14.70
2006,09,28,00,11,14.70
2006,09,28,00,12,14.60
2006,09,28,00,13,14.60
2006,09,28,00,14,14.60
2006,09,28,00,15,14.60
2006,09,28,00,16,14.60
2006,09,28,00,17,14.60
2006,09,28,00,18,14.60
2006,09,28,00,19,14.60
2006,09,28,00,20,14.60
2006,09,28,00,21,14.60
2006,09,28,00,22,14.60
2006,09,28,00,23,14.60
2006,09,28,00,24,14.60
2006,09,28,00,25,14.60
2006,09,28,00,26,14.60
2006,09,28,00,27,14.60
2006,09,28,00,28,14.60
2006,09,28,00,29,14.60
2006,09,28,00,30,14.70
2006,09,28,00,31,14.70
2006,09,28,00,32,14.70
2006,09,28,00,33,14.70
2006,09,28,00,34,14.70
2006,09,28,00,35,14.70
2006,09,28,00,36,14.70
2006,09,28,00,37,14.70
2006,09,28,00,38,14.70
2006,09,28,00,39,14.70
2006,09,28,00,40,14.70
2006,09,28,00,41,14.70
2006,09,28,00,42,14.70
2006,09,28,00,43,14.70
2006,09,28,00,44,14.70
2006,09,28,00,45,14.70
2006,09,28,00,46,14.70
2006,09,28,00,47,14.70
2006,09,28,00,48,14.70
2006,09,28,00,49,14.70
2006,09,28,00,50,14.60
2006,09,28,00,51,14.60
2006,09,28,00,52,14.60
2006,09,28,00,53,14.60
2006,09,28,00,54,14.60
2006,09,28,00,55,14.60
2006,09,28,00,56,14.60
2006,09,28,00,57,14.60
2006,09,28,00,58,14.60
2006,09,28,00,59,14.60
2006,09,28,01,00,14.60
2006,09,28,01,01,14.60
2006,09,28,01,02,14.60
2006,09,28,01,03,14.60
2006,09,28,01,04,14.50
2006,09,28,01,05,14.50
2006,09,28,01,06,14.50
2006,09,28,01,07,14.50
2006,09,28,01,08,14.50
2006,09,28,01,09,14.40
2006,09,28,01,10,14.40
2006,09,28,01,11,14.40
2006,09,28,01,12,14.40
2006,09,28,01,13,14.30
2006,09,28,01,14,14.30
2006,09,28,01,15,14.30
2006,09,28,01,16,14.30
2006,09,28,01,17,14.30
2006,09,28,01,18,14.30
2006,09,28,01,19,14.30
2006,09,28,01,20,14.30
2006,09,28,01,21,14.30
2006,09,28,01,22,14.30
2006,09,28,01,23,14.30
2006,09,28,01,24,14.30
2006,09,28,01,25,14.30
2006,09,28,01,26,14.20
2006,09,28,01,27,14.20
2006,09,28,01,28,14.20
2006,09,28,01,29,14.20
2006,09,28,01,30,14.20
2006,09,28,01,31,14.20
2006,09,28,01,32,14.20
2006,09,28,01,33,14.20
2006,09,28,01,34,14.10
2006,09,28,01,35,14.10
2006,09,28,01,36,14.10
2006,09,28,01,37,14.10
2006,09,28,01,38,14.10
2006,09,28,01,39,14.00
2006,09,28,01,40,14.00
2006,09,28,01,41,14.00
2006,09,28,01,42,14.00
2006,09,28,01,43,14.00
2006,09,28,01,44,14.00
2006,09,28,01,45,14.00
2006,09,28,01,46,14.00
2006,09,28,01,47,14.00
2006,09,28,01,48,14.10
2006,09,28,01,49,14.10
2006,09,28,01,50,14.10
2006,09,28,01,51,14.20
2006,09,28,01,52,14.20
2006,09,28,01,53,14.20
2006,09,28,01,54,14.20
2006,09,28,01,55,14.20
2006,09,28,01,56,14.30
2006,09,28,01,57,14.30
2006,09,28,01,58,14.30
2006,09,28,01,59,14.30
2006,09,28,02,00,14.40
2006,09,28,02,01,14.40
2006,09,28,02,02,14.40
2006,09,28,02,03,14.40
2006,09,28,02,04,14.40
2006,09,28,02,05,14.40
2006,09,28,02,06,14.30
2006,09,28,02,07,14.30
2006,09,28,02,08,14.30
2006,09,28,02,09,14.30
2006,09,28,02,10,14.20
2006,09,28,02,11,14.20
2006,09,28,02,12,14.20
2006,09,28,02,13,14.20
2006,09,28,02,14,14.20
2006,09,28,02,15,14.20
2006,09,28,02,16,14.20
2006,09,28,02,17,14.20
2006,09,28,02,18,14.20
2006,09,28,02,19,14.20
2006,09,28,02,20,14.20
2006,09,28,02,21,14.20
2006,09,28,02,22,14.20
2006,09,28,02,23,14.20
2006,09,28,02,24,14.20
2006,09,28,02,25,14.20
2006,09,28,02,26,14.20
2006,09,28,02,27,14.20
2006,09,28,02,28,14.20
2006,09,28,02,29,14.10
2006,09,28,02,30,14.10
2006,09,28,02,31,14.10
2006,09,28,02,32,14.10
2006,09,28,02,33,14.10
2006,09,28,02,34,14.00
2006,09,28,02,35,14.00
2006,09,28,02,36,14.00
2006,09,28,02,37,14.00
2006,09,28,02,38,14.10
2006,09,28,02,39,14.10
2006,09,28,02,40,14.10
2006,09,28,02,41,14.10
2006,09,28,02,42,14.10
2006,09,28,02,43,14.10
2006,09,28,02,44,14.10
2006,09,28,02,45,14.10
2006,09,28,02,46,14.00
2006,09,28,02,47,14.00
2006,09,28,02,48,13.90
2006,09,28,02,49,13.90
2006,09,28,02,50,13.80
2006,09,28,02,51,13.80
2006,09,28,02,52,13.80
2006,09,28,02,53,13.80
2006,09,28,02,54,13.80
2006,09,28,02,55,13.70
2006,09,28,02,56,13.70
2006,09,28,02,57,13.70
2006,09,28,02,58,13.70
2006,09,28,02,59,13.70
2006,09,28,03,00,13.70
2006,09,28,03,01,13.70
2006,09,28,03,02,13.70
2006,09,28,03,03,13.60
2006,09,28,03,04,13.60
2006,09,28,03,05,13.60
2006,09,28,03,06,13.60
2006,09,28,03,07,13.60
2006,09,28,03,08,13.60
2006,09,28,03,09,13.60
2006,09,28,03,10,13.50
2006,09,28,03,11,13.50
2006,09,28,03,12,13.50
2006,09,28,03,13,13.40
2006,09,28,03,14,13.40
2006,09,28,03,15,13.40
2006,09,28,03,16,13.40
2006,09,28,03,17,13.40
2006,09,28,03,18,13.40
2006,09,28,03,19,13.40
2006,09,28,03,20,13.40
2006,09,28,03,21,13.40
2006,09,28,03,22,13.40
2006,09,28,03,23,13.40
2006,09,28,03,24,13.30
2006,09,28,03,25,13.30
2006,09,28,03,26,13.30
2006,09,28,03,27,13.30
2006,09,28,03,28,13.30
2006,09,28,03,29,13.30
2006,09,28,03,30,13.30
2006,09,28,03,31,13.30
2006,09,28,03,32,13.30
2006,09,28,03,33,13.20
2006,09,28,03,34,13.20
2006,09,28,03,35,13.20
2006,09,28,03,36,13.20
2006,09,28,03,37,13.20
2006,09,28,03,38,13.20
2006,09,28,03,39,13.20
2006,09,28,03,40,13.20
2006,09,28,03,41,13.20
2006,09,28,03,42,13.20
2006,09,28,03,43,13.10
2006,09,28,03,44,13.10
2006,09,28,03,45,13.10
2006,09,28,03,46,13.10
2006,09,28,03,47,13.10
2006,09,28,03,48,13.10
2006,09,28,03,49,13.10
2006,09,28,03,50,13.10
2006,09,28,03,51,13.10
2006,09,28,03,52,13.10
2006,09,28,03,53,13.00
2006,09,28,03,54,13.00
2006,09,28,03,55,13.00
2006,09,28,03,56,13.00
2006,09,28,03,57,13.00
2006,09,28,03,58,13.00
2006,09,28,03,59,12.90
2006,09,28,04,00,13.00
2006,09,28,04,01,13.00
2006,09,28,04,02,12.90
2006,09,28,04,03,12.90
2006,09,28,04,04,12.90
2006,09,28,04,05,12.90
2006,09,28,04,06,12.90
2006,09,28,04,07,12.90
2006,09,28,04,08,12.90
2006,09,28,04,09,12.90
2006,09,28,04,10,12.90
2006,09,28,04,11,12.90
2006,09,28,04,12,12.90
2006,09,28,04,13,12.90
2006,09,28,04,14,12.90
2006,09,28,04,15,12.80
2006,09,28,04,16,12.80
2006,09,28,04,17,12.80
2006,09,28,04,18,12.80
2006,09,28,04,19,12.80
2006,09,28,04,20,12.80
2006,09,28,04,21,12.80
2006,09,28,04,22,12.80
2006,09,28,04,23,12.80
2006,09,28,04,24,12.80
2006,09,28,04,25,12.80
2006,09,28,04,26,12.80
2006,09,28,04,27,12.80
2006,09,28,04,28,12.80
2006,09,28,04,29,12.80
2006,09,28,04,30,12.80
2006,09,28,04,31,12.80
2006,09,28,04,32,12.80
2006,09,28,04,33,12.80
2006,09,28,04,34,12.80
2006,09,28,04,35,12.80
2006,09,28,04,36,12.80
2006,09,28,04,37,12.80
2006,09,28,04,38,12.80
2006,09,28,04,39,12.70
2006,09,28,04,40,12.70
2006,09,28,04,41,12.70
2006,09,28,04,42,12.70
2006,09,28,04,43,12.70
2006,09,28,04,44,12.70
2006,09,28,04,45,12.70
2006,09,28,04,46,12.70
2006,09,28,04,47,12.70
2006,09,28,04,48,12.70
2006,09,28,04,49,12.70
2006,09,28,04,50,12.60
2006,09,28,04,51,12.60
2006,09,28,04,52,12.60
2006,09,28,04,53,12.60
2006,09,28,04,54,12.60
2006,09,28,04,55,12.60
2006,09,28,04,56,12.60
2006,09,28,04,57,12.60
2006,09,28,04,58,12.60
2006,09,28,04,59,12.60
2006,09,28,05,00,12.60
2006,09,28,05,01,12.60
2006,09,28,05,02,12.60
2006,09,28,05,03,12.60
2006,09,28,05,04,12.60
2006,09,28,05,05,12.60
2006,09,28,05,06,12.60
2006,09,28,05,07,12.50
2006,09,28,05,08,12.50
2006,09,28,05,09,12.50
2006,09,28,05,10,12.50
2006,09,28,05,11,12.50
2006,09,28,05,12,12.50
2006,09,28,05,13,12.50
2006,09,28,05,14,12.50
2006,09,28,05,15,12.50
2006,09,28,05,16,12.50
2006,09,28,05,17,12.50
2006,09,28,05,18,12.50
2006,09,28,05,19,12.50
2006,09,28,05,20,12.40
2006,09,28,05,21,12.40
2006,09,28,05,22,12.40
2006,09,28,05,23,12.40
2006,09,28,05,24,12.40
2006,09,28,05,25,12.40
2006,09,28,05,26,12.40
2006,09,28,05,27,12.40
2006,09,28,05,28,12.40
2006,09,28,05,29,12.40
2006,09,28,05,30,12.40
2006,09,28,05,31,12.40
2006,09,28,05,32,12.40
2006,09,28,05,33,12.40
2006,09,28,05,34,12.40
2006,09,28,05,35,12.40
2006,09,28,05,36,12.40
2006,09,28,05,37,12.30
2006,09,28,05,38,12.30
2006,09,28,05,39,12.30
2006,09,28,05,40,12.30
2006,09,28,05,41,12.30
2006,09,28,05,42,12.30
2006,09,28,05,43,12.30
2006,09,28,05,44,12.30
2006,09,28,05,45,12.30
2006,09,28,05,46,12.30
2006,09,28,05,47,12.30
2006,09,28,05,48,12.30
2006,09,28,05,49,12.30
2006,09,28,05,50,12.30
2006,09,28,05,51,12.30
2006,09,28,05,52,12.30
2006,09,28,05,53,12.20
2006,09,28,05,54,12.20
2006,09,28,05,55,12.20
2006,09,28,05,56,12.20
2006,09,28,05,57,12.20
2006,09,28,05,58,12.20
2006,09,28,05,59,12.20
2006,09,28,06,00,12.10
2006,09,28,06,01,12.10
2006,09,28,06,02,12.10
2006,09,28,06,03,12.20
2006,09,28,06,04,12.10
2006,09,28,06,05,12.10
2006,09,28,06,06,12.10
2006,09,28,06,07,12.10
2006,09,28,06,08,12.10
2006,09,28,06,09,12.10
2006,09,28,06,10,12.10
2006,09,28,06,11,12.10
2006,09,28,06,12,12.10
2006,09,28,06,13,12.10
2006,09,28,06,14,12.10
2006,09,28,06,15,12.10
2006,09,28,06,16,12.10
2006,09,28,06,17,12.10
2006,09,28,06,18,12.10
2006,09,28,06,19,12.00
2006,09,28,06,20,12.00
2006,09,28,06,21,12.00
2006,09,28,06,22,12.00
2006,09,28,06,23,12.00
2006,09,28,06,24,12.00
2006,09,28,06,25,12.00
2006,09,28,06,26,12.00
2006,09,28,06,27,11.90
2006,09,28,06,28,11.90
2006,09,28,06,29,11.90
2006,09,28,06,30,11.90
2006,09,28,06,31,11.90
2006,09,28,06,32,11.90
2006,09,28,06,33,11.90
2006,09,28,06,34,11.90
2006,09,28,06,35,11.90
2006,09,28,06,36,11.90
2006,09,28,06,37,11.80
2006,09,28,06,38,11.80
2006,09,28,06,39,11.80
2006,09,28,06,40,11.80
2006,09,28,06,41,11.80
2006,09,28,06,42,11.80
2006,09,28,06,43,11.80
2006,09,28,06,44,11.80
2006,09,28,06,45,11.80
2006,09,28,06,46,11.80
2006,09,28,06,47,11.80
2006,09,28,06,48,11.80
2006,09,28,06,49,11.80
2006,09,28,06,50,11.80
2006,09,28,06,51,11.80
2006,09,28,06,52,11.80
2006,09,28,06,53,11.80
2006,09,28,06,54,11.80
2006,09,28,06,55,11.80
2006,09,28,06,56,11.80
2006,09,28,06,57,11.80
2006,09,28,06,58,11.80
2006,09,28,06,59,11.70
2006,09,28,07,00,11.70
2006,09,28,07,01,11.70
2006,09,28,07,02,11.70
2006,09,28,07,03,11.70
2006,09,28,07,04,11.70
2006,09,28,07,05,11.70
2006,09,28,07,06,11.70
2006,09,28,07,07,11.70
2006,09,28,07,08,11.70
2006,09,28,07,09,11.70
2006,09,28,07,10,11.70
2006,09,28,07,11,11.70
2006,09,28,07,12,11.70
2006,09,28,07,13,11.70
2006,09,28,07,14,11.70
2006,09,28,07,15,11.70
2006,09,28,07,16,11.70
2006,09,28,07,17,11.70
2006,09,28,07,18,11.60
2006,09,28,07,19,11.70
2006,09,28,07,20,11.70
2006,09,28,07,21,11.70
2006,09,28,07,22,11.70
2006,09,28,07,23,11.70
2006,09,28,07,24,11.70
2006,09,28,07,25,11.70
2006,09,28,07,26,11.70
2006,09,28,07,27,11.70
2006,09,28,07,28,11.70
2006,09,28,07,29,11.70
2006,09,28,07,30,11.70
2006,09,28,07,31,11.70
2006,09,28,07,32,11.70
2006,09,28,07,33,11.70
2006,09,28,07,34,11.70
2006,09,28,07,35,11.70
2006,09,28,07,36,11.70
2006,09,28,07,37,11.70
2006,09,28,07,38,11.70
2006,09,28,07,39,11.70
2006,09,28,07,40,11.70
2006,09,28,07,41,11.70
2006,09,28,07,42,11.70
2006,09,28,07,43,11.70
2006,09,28,07,44,11.70
2006,09,28,07,45,11.70
2006,09,28,07,46,11.70
2006,09,28,07,47,11.70
2006,09,28,07,48,11.70
2006,09,28,07,49,11.70
2006,09,28,07,50,11.70
2006,09,28,07,51,11.70
2006,09,28,07,52,11.70
2006,09,28,07,53,11.70
2006,09,28,07,54,11.70
2006,09,28,07,55,11.70
2006,09,28,07,56,11.70
2006,09,28,07,57,11.70
2006,09,28,07,58,11.70
2006,09,28,07,59,11.70
2006,09,28,08,00,11.70
2006,09,28,08,01,11.70
2006,09,28,08,02,11.70
2006,09,28,08,03,11.70
2006,09,28,08,04,11.70
2006,09,28,08,05,11.70
2006,09,28,08,06,11.70
2006,09,28,08,07,11.70
2006,09,28,08,08,11.70
2006,09,28,08,09,11.70
2006,09,28,08,10,11.80
2006,09,28,08,11,11.80
2006,09,28,08,12,11.80
2006,09,28,08,13,11.80
2006,09,28,08,14,11.80
2006,09,28,08,15,11.80
2006,09,28,08,16,11.80
2006,09,28,08,17,11.80
2006,09,28,08,18,11.90
2006,09,28,08,19,11.90
2006,09,28,08,20,11.90
2006,09,28,08,21,11.90
2006,09,28,08,22,12.00
2006,09,28,08,23,12.00
2006,09,28,08,24,12.10
2006,09,28,08,25,12.10
2006,09,28,08,26,12.20
2006,09,28,08,27,12.30
2006,09,28,08,28,12.40
2006,09,28,08,29,12.50
2006,09,28,08,30,12.60
2006,09,28,08,31,12.70
2006,09,28,08,32,12.80
2006,09,28,08,33,12.80
2006,09,28,08,34,12.90
2006,09,28,08,35,13.10
2006,09,28,08,36,13.20
2006,09,28,08,37,13.30
2006,09,28,08,38,13.40
2006,09,28,08,39,13.50
2006,09,28,08,40,13.70
2006,09,28,08,41,13.80
2006,09,28,08,42,13.80
2006,09,28,08,43,14.00
2006,09,28,08,44,14.10
2006,09,28,08,45,14.10
2006,09,28,08,46,14.20
2006,09,28,08,47,14.30
2006,09,28,08,48,14.40
2006,09,28,08,49,14.50
2006,09,28,08,50,14.60
2006,09,28,08,51,14.70
2006,09,28,08,52,14.80
2006,09,28,08,53,15.00
2006,09,28,08,54,15.00
2006,09,28,08,55,15.00
2006,09,28,08,56,15.10
2006,09,28,08,57,15.30
2006,09,28,08,58,15.40
2006,09,28,08,59,15.50
2006,09,28,09,00,15.60
2006,09,28,09,01,15.70
2006,09,28,09,02,15.70
2006,09,28,09,03,15.80
2006,09,28,09,04,15.90
2006,09,28,09,05,16.00
2006,09,28,09,06,16.10
2006,09,28,09,07,16.20
2006,09,28,09,08,16.20
2006,09,28,09,09,16.30
2006,09,28,09,10,16.40
2006,09,28,09,11,16.40
2006,09,28,09,12,16.50
2006,09,28,09,13,16.50
2006,09,28,09,14,16.60
2006,09,28,09,15,16.60
2006,09,28,09,16,16.70
2006,09,28,09,17,16.80
2006,09,28,09,18,16.90
2006,09,28,09,19,17.00
2006,09,28,09,20,17.10
2006,09,28,09,21,17.10
2006,09,28,09,22,17.10
2006,09,28,09,23,17.20
2006,09,28,09,24,17.30
2006,09,28,09,25,17.30
2006,09,28,09,26,17.40
2006,09,28,09,27,17.50
2006,09,28,09,28,17.60
2006,09,28,09,29,17.70
2006,09,28,09,30,17.80
2006,09,28,09,31,17.90
2006,09,28,09,32,18.00
2006,09,28,09,33,18.10
2006,09,28,09,34,18.10
2006,09,28,09,35,18.10
2006,09,28,09,36,18.20
2006,09,28,09,37,18.20
2006,09,28,09,38,18.20
2006,09,28,09,39,18.30
2006,09,28,09,40,18.30
2006,09,28,09,41,18.40
2006,09,28,09,42,18.40
2006,09,28,09,43,18.50
2006,09,28,09,44,18.50
2006,09,28,09,45,18.50
2006,09,28,09,46,18.50
2006,09,28,09,47,18.60
2006,09,28,09,48,18.60
2006,09,28,09,49,18.60
2006,09,28,09,50,18.70
2006,09,28,09,51,18.70
2006,09,28,09,52,18.70
2006,09,28,09,53,18.70
2006,09,28,09,54,18.70
2006,09,28,09,55,18.70
2006,09,28,09,56,18.70
2006,09,28,09,57,18.70
2006,09,28,09,58,18.70
2006,09,28,09,59,18.70
2006,09,28,10,00,18.70
2006,09,28,10,01,18.70
2006,09,28,10,02,18.80
2006,09,28,10,03,18.70
2006,09,28,10,04,18.70
2006,09,28,10,05,18.70
2006,09,28,10,06,18.70
2006,09,28,10,07,18.60
2006,09,28,10,08,18.60
2006,09,28,10,09,18.60
2006,09,28,10,10,18.60
2006,09,28,10,11,18.60
2006,09,28,10,12,18.60
2006,09,28,10,13,18.60
2006,09,28,10,14,18.50
2006,09,28,10,15,18.50
2006,09,28,10,16,18.50
2006,09,28,10,17,18.50
2006,09,28,10,18,18.60
2006,09,28,10,19,18.60
2006,09,28,10,20,18.70
2006,09,28,10,21,18.70
2006,09,28,10,22,18.70
2006,09,28,10,23,18.70
2006,09,28,10,24,18.70
2006,09,28,10,25,18.80
2006,09,28,10,26,18.90
2006,09,28,10,27,18.90
2006,09,28,10,28,18.90
2006,09,28,10,29,18.90
2006,09,28,10,30,18.90
2006,09,28,10,31,18.90
2006,09,28,10,32,18.90
2006,09,28,10,33,18.90
2006,09,28,10,34,18.90
2006,09,28,10,35,18.90
2006,09,28,10,36,19.00
2006,09,28,10,37,19.00
2006,09,28,10,38,19.10
2006,09,28,10,39,19.20
2006,09,28,10,40,19.30
2006,09,28,10,41,19.30
2006,09,28,10,42,19.40
2006,09,28,10,43,19.50
2006,09,28,10,44,19.60
2006,09,28,10,45,19.70
2006,09,28,10,46,19.80
2006,09,28,10,47,19.80
2006,09,28,10,48,19.90
2006,09,28,10,49,19.90
2006,09,28,10,50,19.90
2006,09,28,10,51,19.90
2006,09,28,10,52,19.90
2006,09,28,10,53,19.90
2006,09,28,10,54,19.90
2006,09,28,10,55,19.90
2006,09,28,10,56,19.90
2006,09,28,10,57,19.90
2006,09,28,10,58,20.00
2006,09,28,10,59,20.00
2006,09,28,11,00,20.10
2006,09,28,11,01,20.10
2006,09,28,11,02,20.20
2006,09,28,11,03,20.20
2006,09,28,11,04,20.30
2006,09,28,11,05,20.30
2006,09,28,11,06,20.40
2006,09,28,11,07,20.40
2006,09,28,11,08,20.40
2006,09,28,11,09,20.40
2006,09,28,11,10,20.30
2006,09,28,11,11,20.30
2006,09,28,11,12,20.30
2006,09,28,11,13,20.20
2006,09,28,11,14,20.20
2006,09,28,11,15,20.20
2006,09,28,11,16,20.20
2006,09,28,11,17,20.10
2006,09,28,11,18,19.90
2006,09,28,11,19,19.80
2006,09,28,11,20,19.60
2006,09,28,11,21,19.50
2006,09,28,11,22,19.40
2006,09,28,11,23,19.30
2006,09,28,11,24,19.20
2006,09,28,11,25,19.00
2006,09,28,11,26,18.90
2006,09,28,11,27,18.70
2006,09,28,11,28,18.60
2006,09,28,11,29,18.50
2006,09,28,11,30,18.40
2006,09,28,11,31,18.40
2006,09,28,11,32,18.30
2006,09,28,11,33,18.30
2006,09,28,11,34,18.20
2006,09,28,11,35,18.20
2006,09,28,11,36,18.30
2006,09,28,11,37,18.30
2006,09,28,11,38,18.30
2006,09,28,11,39,18.30
2006,09,28,11,40,18.30
2006,09,28,11,41,18.40
2006,09,28,11,42,18.40
2006,09,28,11,43,18.40
2006,09,28,11,44,18.50
2006,09,28,11,45,18.50
2006,09,28,11,46,18.60
2006,09,28,11,47,18.60
2006,09,28,11,48,18.60
2006,09,28,11,49,18.70
2006,09,28,11,50,18.70
2006,09,28,11,51,18.80
2006,09,28,11,52,18.80
2006,09,28,11,53,18.80
2006,09,28,11,54,18.80
2006,09,28,11,55,18.90
2006,09,28,11,56,18.90
2006,09,28,11,57,18.90
2006,09,28,11,58,18.90
2006,09,28,11,59,19.00
2006,09,28,12,00,19.10
2006,09,28,12,01,19.10
2006,09,28,12,02,19.10
2006,09,28,12,03,19.20
2006,09,28,12,04,19.20
2006,09,28,12,05,19.20
2006,09,28,12,06,19.20
2006,09,28,12,07,19.20
2006,09,28,12,08,19.30
2006,09,28,12,09,19.30
2006,09,28,12,10,19.30
2006,09,28,12,11,19.30
2006,09,28,12,12,19.40
2006,09,28,12,13,19.40
2006,09,28,12,14,19.40
2006,09,28,12,15,19.40
2006,09,28,12,16,19.40
2006,09,28,12,17,19.40
2006,09,28,12,18,19.30
2006,09,28,12,19,19.40
2006,09,28,12,20,19.40
2006,09,28,12,21,19.40
2006,09,28,12,22,19.50
2006,09,28,12,23,19.60
2006,09,28,12,24,19.70
2006,09,28,12,25,19.70
2006,09,28,12,26,19.70
2006,09,28,12,27,19.80
2006,09,28,12,28,19.80
2006,09,28,12,29,19.90
2006,09,28,12,30,19.90
2006,09,28,12,31,19.90
2006,09,28,12,32,19.90
2006,09,28,12,33,19.90
2006,09,28,12,34,20.00
2006,09,28,12,35,20.00
2006,09,28,12,36,20.00
2006,09,28,12,37,20.10
2006,09,28,12,38,20.10
2006,09,28,12,39,20.10
2006,09,28,12,40,20.10
2006,09,28,12,41,20.10
2006,09,28,12,42,20.10
2006,09,28,12,43,20.10
2006,09,28,12,44,20.10
2006,09,28,12,45,20.20
2006,09,28,12,46,20.30
2006,09,28,12,47,20.30
2006,09,28,12,48,20.40
2006,09,28,12,49,20.40
2006,09,28,12,50,20.30
2006,09,28,12,51,20.30
2006,09,28,12,52,20.40
2006,09,28,12,53,20.50
2006,09,28,12,54,20.50
2006,09,28,12,55,20.60
2006,09,28,12,56,20.60
2006,09,28,12,57,20.70
2006,09,28,12,58,20.70
2006,09,28,12,59,20.70
2006,09,28,13,00,20.70
2006,09,28,13,01,20.70
2006,09,28,13,02,20.80
2006,09,28,13,03,20.80
2006,09,28,13,04,20.90
2006,09,28,13,05,20.90
2006,09,28,13,06,20.90
2006,09,28,13,07,20.90
2006,09,28,13,08,20.90
2006,09,28,13,09,20.90
2006,09,28,13,10,20.90
2006,09,28,13,11,21.00
2006,09,28,13,12,21.00
2006,09,28,13,13,21.10
2006,09,28,13,14,21.10
2006,09,28,13,15,21.20
2006,09,28,13,16,21.20
2006,09,28,13,17,21.30
2006,09,28,13,18,21.30
2006,09,28,13,19,21.40
2006,09,28,13,20,21.40
2006,09,28,13,21,21.40
2006,09,28,13,22,21.40
2006,09,28,13,23,21.30
2006,09,28,13,24,21.30
2006,09,28,13,25,21.40
2006,09,28,13,26,21.40
2006,09,28,13,27,21.50
2006,09,28,13,28,21.50
2006,09,28,13,29,21.50
2006,09,28,13,30,21.50
2006,09,28,13,31,21.60
2006,09,28,13,32,21.60
2006,09,28,13,33,21.60
2006,09,28,13,34,21.60
2006,09,28,13,35,21.70
2006,09,28,13,36,21.70
2006,09,28,13,37,21.80
2006,09,28,13,38,21.80
2006,09,28,13,39,21.80
2006,09,28,13,40,21.80
2006,09,28,13,41,21.80
2006,09,28,13,42,21.80
2006,09,28,13,43,21.80
2006,09,28,13,44,21.80
2006,09,28,13,45,21.80
2006,09,28,13,46,21.80
2006,09,28,13,47,21.80
2006,09,28,13,48,21.90
2006,09,28,13,49,21.90
2006,09,28,13,50,21.90
2006,09,28,13,51,21.90
2006,09,28,13,52,21.90
2006,09,28,13,53,22.00
2006,09,28,13,54,22.00
2006,09,28,13,55,22.10
2006,09,28,13,56,22.10
2006,09,28,13,57,22.10
2006,09,28,13,58,22.20
2006,09,28,13,59,22.10
2006,09,28,14,00,22.10
2006,09,28,14,01,22.20
2006,09,28,14,02,22.20
2006,09,28,14,03,22.30
2006,09,28,14,04,22.40
2006,09,28,14,05,22.50
2006,09,28,14,06,22.50
2006,09,28,14,07,22.60
2006,09,28,14,08,22.60
2006,09,28,14,09,22.70
2006,09,28,14,10,22.70
2006,09,28,14,11,22.70
2006,09,28,14,12,22.80
2006,09,28,14,13,22.80
2006,09,28,14,14,22.80
2006,09,28,14,15,22.80
2006,09,28,14,16,22.80
2006,09,28,14,17,22.80
2006,09,28,14,18,22.90
2006,09,28,14,19,22.80
2006,09,28,14,20,22.80
2006,09,28,14,21,22.70
2006,09,28,14,22,22.70
2006,09,28,14,23,22.70
2006,09,28,14,24,22.70
2006,09,28,14,25,22.70
2006,09,28,14,26,22.80
2006,09,28,14,27,22.80
2006,09,28,14,28,22.80
2006,09,28,14,29,22.80
2006,09,28,14,30,22.80
2006,09,28,14,31,22.80
2006,09,28,14,32,22.80
2006,09,28,14,33,22.90
2006,09,28,14,34,22.90
2006,09,28,14,35,23.00
2006,09,28,14,36,23.10
2006,09,28,14,37,23.10
2006,09,28,14,38,23.20
2006,09,28,14,39,23.30
2006,09,28,14,40,23.30
2006,09,28,14,41,23.30
2006,09,28,14,42,23.40
2006,09,28,14,43,23.40
2006,09,28,14,44,23.40
2006,09,28,14,45,23.40
2006,09,28,14,46,23.40
2006,09,28,14,47,23.40
2006,09,28,14,48,23.40
2006,09,28,14,49,23.40
2006,09,28,14,50,23.40
2006,09,28,14,51,23.40
2006,09,28,14,52,23.40
2006,09,28,14,53,23.40
2006,09,28,14,54,23.40
2006,09,28,14,55,23.30
2006,09,28,14,56,23.30
2006,09,28,14,57,23.30
2006,09,28,14,58,23.30
2006,09,28,14,59,23.40
2006,09,28,15,00,23.40
2006,09,28,15,01,23.50
2006,09,28,15,02,23.60
2006,09,28,15,03,23.60
2006,09,28,15,04,23.60
2006,09,28,15,05,23.70
2006,09,28,15,06,23.80
2006,09,28,15,07,23.80
2006,09,28,15,08,23.90
2006,09,28,15,09,23.90
2006,09,28,15,10,24.00
2006,09,28,15,11,24.00
2006,09,28,15,12,24.00
2006,09,28,15,13,24.10
2006,09,28,15,14,24.00
2006,09,28,15,15,23.80
2006,09,28,15,16,23.70
2006,09,28,15,17,23.60
2006,09,28,15,18,23.50
2006,09,28,15,19,23.40
2006,09,28,15,20,23.30
2006,09,28,15,21,23.20
2006,09,28,15,22,23.10
2006,09,28,15,23,23.10
2006,09,28,15,24,23.00
2006,09,28,15,25,23.00
2006,09,28,15,26,23.00
2006,09,28,15,27,23.00
2006,09,28,15,28,23.00
2006,09,28,15,29,23.00
2006,09,28,15,30,23.00
2006,09,28,15,31,23.00
2006,09,28,15,32,23.00
2006,09,28,15,33,22.90
2006,09,28,15,34,22.90
2006,09,28,15,35,22.80
2006,09,28,15,36,22.80
2006,09,28,15,37,22.80
2006,09,28,15,38,22.80
2006,09,28,15,39,22.70
2006,09,28,15,40,22.70
2006,09,28,15,41,22.60
2006,09,28,15,42,22.60
2006,09,28,15,43,22.60
2006,09,28,15,44,22.50
2006,09,28,15,45,22.50
2006,09,28,15,46,22.40
2006,09,28,15,47,22.40
2006,09,28,15,48,22.40
2006,09,28,15,49,22.40
2006,09,28,15,50,22.50
2006,09,28,15,51,22.50
2006,09,28,15,52,22.50
2006,09,28,15,53,22.50
2006,09,28,15,54,22.50
2006,09,28,15,55,22.50
2006,09,28,15,56,22.40
2006,09,28,15,57,22.40
2006,09,28,15,58,22.30
2006,09,28,15,59,22.30
2006,09,28,16,00,22.30
2006,09,28,16,01,22.20
2006,09,28,16,02,22.20
2006,09,28,16,03,22.20
2006,09,28,16,04,22.20
2006,09,28,16,05,22.20
2006,09,28,16,06,22.10
2006,09,28,16,07,22.10
2006,09,28,16,08,22.10
2006,09,28,16,09,22.10
2006,09,28,16,10,22.10
2006,09,28,16,11,22.10
2006,09,28,16,12,22.10
2006,09,28,16,13,22.20
2006,09,28,16,14,22.20
2006,09,28,16,15,22.20
2006,09,28,16,16,22.20
2006,09,28,16,17,22.20
2006,09,28,16,18,22.20
2006,09,28,16,19,22.20
2006,09,28,16,20,22.20
2006,09,28,16,21,22.20
2006,09,28,16,22,22.20
2006,09,28,16,23,22.20
2006,09,28,16,24,22.20
2006,09,28,16,25,22.20
2006,09,28,16,26,22.20
2006,09,28,16,27,22.20
2006,09,28,16,28,22.20
2006,09,28,16,29,22.20
2006,09,28,16,30,22.20
2006,09,28,16,31,22.20
2006,09,28,16,32,22.20
2006,09,28,16,33,22.20
2006,09,28,16,34,22.20
2006,09,28,16,35,22.20
2006,09,28,16,36,22.20
2006,09,28,16,37,22.20
2006,09,28,16,38,22.20
2006,09,28,16,39,22.20
2006,09,28,16,40,22.20
2006,09,28,16,41,22.10
2006,09,28,16,42,22.10
2006,09,28,16,43,22.10
2006,09,28,16,44,22.10
2006,09,28,16,45,22.10
2006,09,28,16,46,22.10
2006,09,28,16,47,22.10
2006,09,28,16,48,22.10
2006,09,28,16,49,22.10
2006,09,28,16,50,22.10
2006,09,28,16,51,22.10
2006,09,28,16,52,22.10
2006,09,28,16,53,22.10
2006,09,28,16,54,22.00
2006,09,28,16,55,22.00
2006,09,28,16,56,22.00
2006,09,28,16,57,22.00
2006,09,28,16,58,22.00
2006,09,28,16,59,22.00
2006,09,28,17,00,22.00
2006,09,28,17,01,22.00
2006,09,28,17,02,22.00
2006,09,28,17,03,22.00
2006,09,28,17,04,22.00
2006,09,28,17,05,21.90
2006,09,28,17,06,21.90
2006,09,28,17,07,21.90
2006,09,28,17,08,22.00
2006,09,28,17,09,22.00
2006,09,28,17,10,22.00
2006,09,28,17,11,22.00
2006,09,28,17,12,21.90
2006,09,28,17,13,21.90
2006,09,28,17,14,21.90
2006,09,28,17,15,21.90
2006,09,28,17,16,21.90
2006,09,28,17,17,21.90
2006,09,28,17,18,21.90
2006,09,28,17,19,21.90